Location: Dugenta
(41.1333°N, 14.4500°E)
Time: 13:39:18
(UTC+00:00)

H-2A R/B - Pass Details

Date: 03 March 2021
Orbit: 732 x 837 km, 98.2° (Epoch: 20 April)

Event Time Altitude Azimuth Distance (km) Brightness Sun altitude
Rises 17:58:35 0° 174° (S) 3,356 5.2 -12.7°
Reaches altitude 10° 18:00:56 10° 177° (S) 2,434 4.5 -13.1°
Maximum altitude 18:06:19 65° 259° (WSW) 918 2.6 -14.1°
Drops below altitude 10° 18:11:45 10° 341° (NNW) 2,456 4.9 -15.1°
Sets 18:14:09 0° 345° (NNW) 3,389 5.6 -15.6°
